Time,TemperatureF,DewpointF,PressureIn,WindDirection,WindDirectionDegrees,WindSpeedMPH,WindSpeedGustMPH,Humidity,HourlyPrecipIn,Conditions,Clouds,dailyrainin,SoftwareType,DateUTC
2013-09-13 00:01:00,66.0,65.4,29.12,NNW,338,0.0,0.0,98,0.04,,---,0.00,VWS V14.01,2013-09-13 04:01:00,
2013-09-13 00:02:00,66.0,65.4,29.12,NNW,338,0.0,0.0,98,0.04,,---,0.00,VWS V14.01,2013-09-13 04:02:00,
2013-09-13 00:05:00,66.0,65.4,29.12,NNW,338,0.0,0.0,98,0.04,,---,0.00,VWS V14.01,2013-09-13 04:05:00,
2013-09-13 00:06:00,66.0,65.4,29.12,NNW,338,0.0,0.0,98,0.04,,---,0.00,VWS V14.01,2013-09-13 04:06:00,
2013-09-13 00:07:00,66.0,65.4,29.12,NNW,338,0.0,0.0,98,0.04,,---,0.00,VWS V14.01,2013-09-13 04:07:00,
2013-09-13 00:11:00,66.0,65.4,29.12,NNW,338,0.0,0.0,98,0.04,,---,0.00,VWS V14.01,2013-09-13 04:11:00,
2013-09-13 00:16:00,66.0,65.4,29.12,NNW,338,0.0,0.0,98,0.04,,---,0.00,VWS V14.01,2013-09-13 04:16:00,
2013-09-13 00:22:00,66.0,65.4,29.12,NNW,338,0.0,0.0,98,0.04,,---,0.00,VWS V14.01,2013-09-13 04:22:00,
2013-09-13 00:28:00,66.0,65.4,29.12,NNW,338,0.0,0.0,98,0.08,,---,0.04,VWS V14.01,2013-09-13 04:28:00,
2013-09-13 00:33:00,66.0,65.4,29.12,NNW,338,0.0,0.0,98,0.08,,---,0.04,VWS V14.01,2013-09-13 04:33:00,
2013-09-13 00:39:00,66.0,65.4,29.12,NNW,338,0.0,0.0,98,0.08,,---,0.04,VWS V14.01,2013-09-13 04:39:00,
2013-09-13 00:44:00,66.0,65.4,29.12,NNW,338,0.0,0.0,98,0.08,,---,0.04,VWS V14.01,2013-09-13 04:44:00,
2013-09-13 00:50:00,66.0,65.4,29.14,NNW,338,0.0,0.0,98,0.08,,---,0.04,VWS V14.01,2013-09-13 04:50:00,
2013-09-13 00:56:00,66.0,65.4,29.14,NNW,338,0.0,0.0,98,0.08,,---,0.08,VWS V14.01,2013-09-13 04:56:00,
2013-09-13 01:02:00,66.0,65.4,29.14,NNW,338,0.0,0.0,98,0.08,,---,0.08,VWS V14.01,2013-09-13 05:02:00,
2013-09-13 01:08:00,66.0,65.4,29.12,NNW,338,0.0,0.0,98,0.08,,---,0.08,VWS V14.01,2013-09-13 05:08:00,
2013-09-13 01:14:00,66.0,65.4,29.12,NNW,338,0.0,0.0,98,0.12,,---,0.12,VWS V14.01,2013-09-13 05:14:00,
2013-09-13 01:20:00,65.8,65.3,29.12,NNW,338,0.0,0.0,98,0.12,,---,0.12,VWS V14.01,2013-09-13 05:20:00,
2013-09-13 01:26:00,65.8,65.3,29.12,NNW,338,0.0,0.0,98,0.12,,---,0.12,VWS V14.01,2013-09-13 05:26:00,
2013-09-13 01:31:00,65.8,65.3,29.12,NNW,338,0.0,0.0,98,0.08,,---,0.12,VWS V14.01,2013-09-13 05:31:00,
2013-09-13 01:36:00,65.8,65.3,29.09,NNW,338,0.0,0.0,98,0.08,,---,0.12,VWS V14.01,2013-09-13 05:36:00,
2013-09-13 01:42:00,65.8,65.3,29.09,NNW,338,0.0,0.0,98,0.08,,---,0.12,VWS V14.01,2013-09-13 05:42:00,
2013-09-13 01:47:00,65.7,65.1,29.09,NE,45,0.0,0.0,98,0.12,,---,0.16,VWS V14.01,2013-09-13 05:47:00,
2013-09-13 01:53:00,65.7,65.1,29.09,NE,45,0.0,0.0,98,0.12,,---,0.16,VWS V14.01,2013-09-13 05:53:00,
2013-09-13 01:58:00,65.7,65.1,29.09,NE,45,0.0,0.0,98,0.08,,---,0.16,VWS V14.01,2013-09-13 05:58:00,
2013-09-13 02:04:00,65.7,65.1,29.09,NE,45,0.0,0.0,98,0.08,,---,0.16,VWS V14.01,2013-09-13 06:04:00,
2013-09-13 02:10:00,65.5,64.9,29.09,NE,45,0.0,0.0,98,0.08,,---,0.16,VWS V14.01,2013-09-13 06:10:00,
2013-09-13 02:15:00,65.5,64.9,29.09,NE,45,0.0,0.0,98,0.04,,---,0.16,VWS V14.01,2013-09-13 06:15:00,
2013-09-13 02:21:00,65.5,64.9,29.09,NE,45,0.0,0.0,98,0.04,,---,0.16,VWS V14.01,2013-09-13 06:21:00,
2013-09-13 02:26:00,65.3,64.7,29.09,NE,45,0.0,0.0,98,0.04,,---,0.16,VWS V14.01,2013-09-13 06:26:00,
2013-09-13 02:32:00,65.3,64.7,29.09,North,0,0.0,0.0,98,0.04,,---,0.16,VWS V14.01,2013-09-13 06:32:00,
2013-09-13 02:38:00,65.1,64.5,29.09,North,0,0.0,0.0,98,0.04,,---,0.16,VWS V14.01,2013-09-13 06:38:00,
2013-09-13 02:43:00,65.1,64.5,29.09,North,0,0.0,0.0,98,0.04,,---,0.16,VWS V14.01,2013-09-13 06:43:00,
2013-09-13 02:49:00,65.1,64.5,29.09,North,0,0.0,0.0,98,0.00,,---,0.16,VWS V14.01,2013-09-13 06:49:00,
2013-09-13 02:54:00,65.1,64.5,29.09,North,0,0.0,0.0,98,0.00,,---,0.16,VWS V14.01,2013-09-13 06:54:00,
2013-09-13 03:00:00,65.1,64.5,29.09,North,0,0.0,0.0,98,0.00,,---,0.16,VWS V14.01,2013-09-13 07:00:00,
2013-09-13 03:05:00,65.1,64.5,29.09,North,0,0.0,0.0,98,0.00,,---,0.16,VWS V14.01,2013-09-13 07:05:00,
2013-09-13 03:11:00,65.1,64.5,29.09,North,0,0.0,0.0,98,0.00,,---,0.16,VWS V14.01,2013-09-13 07:11:00,
2013-09-13 03:16:00,65.1,64.5,29.09,North,0,0.0,0.0,98,0.00,,---,0.16,VWS V14.01,2013-09-13 07:16:00,
2013-09-13 03:21:00,65.1,64.5,29.09,North,0,0.0,0.0,98,0.00,,---,0.16,VWS V14.01,2013-09-13 07:21:00,
2013-09-13 03:27:00,65.1,64.5,29.09,North,0,0.0,1.1,98,0.00,,---,0.16,VWS V14.01,2013-09-13 07:27:00,
2013-09-13 03:32:00,65.1,64.5,29.09,North,0,0.0,0.0,98,0.00,,---,0.16,VWS V14.01,2013-09-13 07:32:00,
2013-09-13 03:38:00,65.1,64.5,29.09,North,0,0.0,0.0,98,0.00,,---,0.16,VWS V14.01,2013-09-13 07:38:00,
2013-09-13 03:43:00,65.1,64.5,29.09,North,0,0.0,0.0,98,0.00,,---,0.16,VWS V14.01,2013-09-13 07:43:00,
2013-09-13 03:49:00,65.1,64.5,29.09,North,0,0.0,0.0,98,0.00,,---,0.16,VWS V14.01,2013-09-13 07:49:00,
2013-09-13 03:54:00,65.1,64.5,29.09,North,0,0.0,0.0,98,0.00,,---,0.16,VWS V14.01,2013-09-13 07:54:00,
2013-09-13 03:59:00,64.9,64.4,29.09,North,0,0.0,0.0,98,0.00,,---,0.16,VWS V14.01,2013-09-13 07:59:00,
2013-09-13 04:05:00,65.1,64.5,29.09,North,0,0.0,0.0,98,0.00,,---,0.16,VWS V14.01,2013-09-13 08:05:00,
2013-09-13 04:10:00,65.1,64.5,29.09,North,0,0.0,0.0,98,0.00,,---,0.16,VWS V14.01,2013-09-13 08:10:00,
2013-09-13 04:17:00,65.1,64.5,29.09,North,0,0.0,0.0,98,0.00,,---,0.16,VWS V14.01,2013-09-13 08:17:00,
2013-09-13 04:22:00,65.1,64.5,29.09,North,0,0.0,0.0,98,0.00,,---,0.16,VWS V14.01,2013-09-13 08:22:00,
2013-09-13 04:28:00,65.1,64.5,29.09,North,0,0.0,0.0,98,0.00,,---,0.16,VWS V14.01,2013-09-13 08:28:00,
2013-09-13 04:34:00,65.1,64.5,29.09,North,0,0.0,0.0,98,0.00,,---,0.16,VWS V14.01,2013-09-13 08:34:00,
2013-09-13 04:39:00,65.1,64.5,29.09,North,0,0.0,0.0,98,0.00,,---,0.16,VWS V14.01,2013-09-13 08:39:00,
2013-09-13 04:45:00,65.1,64.5,29.09,North,0,0.0,0.0,98,0.00,,---,0.16,VWS V14.01,2013-09-13 08:45:00,
2013-09-13 04:51:00,65.1,64.5,29.09,North,0,0.0,0.0,98,0.00,,---,0.16,VWS V14.01,2013-09-13 08:51:00,
2013-09-13 04:56:00,65.1,64.5,29.09,North,0,0.0,0.0,98,0.00,,---,0.16,VWS V14.01,2013-09-13 08:56:00,
2013-09-13 05:01:00,65.1,64.5,29.09,North,0,0.0,0.0,98,0.00,,---,0.16,VWS V14.01,2013-09-13 09:01:00,
2013-09-13 05:07:00,64.9,64.4,29.09,North,0,0.0,0.0,98,0.00,,---,0.16,VWS V14.01,2013-09-13 09:07:00,
2013-09-13 05:12:00,64.9,64.4,29.09,North,0,0.0,0.0,98,0.00,,---,0.16,VWS V14.01,2013-09-13 09:12:00,
2013-09-13 05:17:00,64.9,64.4,29.09,North,0,0.0,0.0,98,0.00,,---,0.16,VWS V14.01,2013-09-13 09:17:00,
2013-09-13 05:23:00,64.9,64.4,29.09,North,0,0.0,0.0,98,0.00,,---,0.16,VWS V14.01,2013-09-13 09:23:00,
2013-09-13 05:29:00,64.9,64.4,29.09,North,0,0.0,0.0,98,0.00,,---,0.16,VWS V14.01,2013-09-13 09:29:00,
2013-09-13 05:34:00,64.9,64.4,29.09,North,0,0.0,0.0,98,0.00,,---,0.16,VWS V14.01,2013-09-13 09:34:00,
2013-09-13 05:41:00,64.9,64.4,29.09,North,0,0.0,0.0,98,0.00,,---,0.16,VWS V14.01,2013-09-13 09:41:00,
2013-09-13 05:46:00,64.9,64.4,29.09,North,0,0.0,0.0,98,0.00,,---,0.16,VWS V14.01,2013-09-13 09:46:00,
2013-09-13 05:51:00,64.9,64.4,29.09,North,0,0.0,0.0,98,0.00,,---,0.16,VWS V14.01,2013-09-13 09:51:00,
2013-09-13 05:56:00,64.9,64.4,29.09,North,0,0.0,0.0,98,0.00,,---,0.16,VWS V14.01,2013-09-13 09:56:00,
2013-09-13 06:02:00,64.8,64.2,29.09,North,0,0.0,0.0,98,0.00,,---,0.16,VWS V14.01,2013-09-13 10:02:00,
2013-09-13 06:08:00,64.8,64.2,29.09,North,0,0.0,0.0,98,0.00,,---,0.16,VWS V14.01,2013-09-13 10:08:00,
2013-09-13 06:13:00,64.8,64.2,29.09,North,0,0.0,0.0,98,0.00,,---,0.16,VWS V14.01,2013-09-13 10:13:00,
2013-09-13 06:18:00,64.6,64.0,29.09,North,0,0.0,0.0,98,0.00,,---,0.16,VWS V14.01,2013-09-13 10:18:00,
2013-09-13 06:25:00,64.6,64.0,29.09,North,0,0.0,0.0,98,0.00,,---,0.16,VWS V14.01,2013-09-13 10:25:00,
2013-09-13 06:30:00,64.6,64.0,29.09,North,0,0.0,0.0,98,0.00,,---,0.16,VWS V14.01,2013-09-13 10:30:00,
2013-09-13 06:36:00,64.4,63.8,29.09,WNW,292,0.0,0.0,98,0.00,,---,0.16,VWS V14.01,2013-09-13 10:36:00,
2013-09-13 06:41:00,64.6,64.0,29.09,WNW,292,0.0,0.0,98,0.00,,---,0.16,VWS V14.01,2013-09-13 10:41:00,
2013-09-13 06:46:00,64.4,63.8,29.09,WNW,292,0.0,0.0,98,0.00,,---,0.16,VWS V14.01,2013-09-13 10:46:00,
2013-09-13 06:52:00,64.4,63.8,29.09,ENE,68,0.0,0.0,98,0.00,,---,0.16,VWS V14.01,2013-09-13 10:52:00,
2013-09-13 06:59:00,64.6,64.0,29.09,ENE,68,0.0,0.0,98,0.00,,---,0.16,VWS V14.01,2013-09-13 10:59:00,
2013-09-13 07:04:00,64.6,64.0,29.09,ENE,68,0.0,0.0,98,0.00,,---,0.16,VWS V14.01,2013-09-13 11:04:00,
2013-09-13 07:10:00,64.4,63.8,29.09,ENE,68,0.0,0.0,98,0.00,,---,0.16,VWS V14.01,2013-09-13 11:10:00,
2013-09-13 07:16:00,64.4,63.8,29.09,NNW,338,0.0,0.0,98,0.00,,---,0.16,VWS V14.01,2013-09-13 11:16:00,
2013-09-13 07:22:00,64.4,63.8,29.09,NW,315,0.0,0.0,98,0.00,,---,0.16,VWS V14.01,2013-09-13 11:22:00,
2013-09-13 07:27:00,64.4,63.8,29.09,NW,315,0.0,0.0,98,0.00,,---,0.16,VWS V14.01,2013-09-13 11:27:00,
2013-09-13 07:33:00,64.6,64.0,29.09,NW,315,0.0,0.0,98,0.00,,---,0.16,VWS V14.01,2013-09-13 11:33:00,
2013-09-13 07:39:00,64.6,64.0,29.12,NW,315,0.0,0.0,98,0.00,,---,0.16,VWS V14.01,2013-09-13 11:39:00,
2013-09-13 07:44:00,64.8,64.2,29.12,NW,315,0.0,0.0,98,0.00,,---,0.16,VWS V14.01,2013-09-13 11:44:00,
2013-09-13 07:49:00,64.8,64.2,29.12,NW,315,0.0,0.0,98,0.00,,---,0.16,VWS V14.01,2013-09-13 11:49:00,
2013-09-13 07:54:00,64.9,64.4,29.09,NW,315,0.0,0.0,98,0.00,,---,0.16,VWS V14.01,2013-09-13 11:54:00,
2013-09-13 08:00:00,65.1,64.5,29.09,NW,315,0.0,0.0,98,0.00,,---,0.16,VWS V14.01,2013-09-13 12:00:00,
2013-09-13 08:05:00,65.1,64.5,29.12,NW,315,0.0,0.0,98,0.00,,---,0.16,VWS V14.01,2013-09-13 12:05:00,
2013-09-13 08:11:00,65.1,64.5,29.12,NW,315,0.0,0.0,98,0.00,,---,0.16,VWS V14.01,2013-09-13 12:11:00,
2013-09-13 08:16:00,65.3,64.7,29.12,NW,315,0.0,0.0,98,0.00,,---,0.16,VWS V14.01,2013-09-13 12:16:00,
2013-09-13 08:22:00,65.5,64.9,29.12,NW,315,0.0,0.0,98,0.00,,---,0.16,VWS V14.01,2013-09-13 12:22:00,
2013-09-13 08:27:00,65.5,64.9,29.12,NW,315,0.0,0.0,98,0.00,,---,0.16,VWS V14.01,2013-09-13 12:27:00,
2013-09-13 08:33:00,65.7,65.1,29.12,NW,315,0.0,0.0,98,0.00,,---,0.16,VWS V14.01,2013-09-13 12:33:00,
2013-09-13 08:38:00,65.7,65.1,29.09,NW,315,0.0,0.0,98,0.00,,---,0.16,VWS V14.01,2013-09-13 12:38:00,
2013-09-13 08:44:00,65.7,65.1,29.09,WSW,248,0.0,1.6,98,0.00,,---,0.16,VWS V14.01,2013-09-13 12:44:00,
2013-09-13 08:49:00,65.7,65.1,29.12,WSW,248,0.0,0.0,98,0.00,,---,0.16,VWS V14.01,2013-09-13 12:49:00,
2013-09-13 08:54:00,65.7,65.1,29.12,West,270,0.0,0.0,98,0.00,,---,0.16,VWS V14.01,2013-09-13 12:54:00,
2013-09-13 08:59:00,65.7,65.1,29.12,West,270,0.0,0.0,98,0.00,,---,0.16,VWS V14.01,2013-09-13 12:59:00,
2013-09-13 09:04:00,65.5,64.9,29.12,West,270,0.0,0.0,98,0.00,,---,0.16,VWS V14.01,2013-09-13 13:04:00,
2013-09-13 09:10:00,65.5,64.9,29.12,SW,225,0.0,2.5,98,0.00,,---,0.16,VWS V14.01,2013-09-13 13:10:00,
2013-09-13 09:16:00,65.3,64.4,29.12,WSW,248,2.7,3.8,97,0.00,,---,0.16,VWS V14.01,2013-09-13 13:16:00,
2013-09-13 09:22:00,65.3,64.4,29.12,SSW,202,0.0,1.6,97,0.00,,---,0.16,VWS V14.01,2013-09-13 13:22:00,
2013-09-13 09:28:00,65.1,64.0,29.12,SW,225,0.0,3.4,96,0.00,,---,0.16,VWS V14.01,2013-09-13 13:28:00,
2013-09-13 09:33:00,65.3,63.8,29.12,SSE,158,0.0,2.0,95,0.00,,---,0.16,VWS V14.01,2013-09-13 13:33:00,
2013-09-13 09:40:00,65.1,63.7,29.12,WNW,292,3.4,3.4,95,0.00,,---,0.16,VWS V14.01,2013-09-13 13:40:00,
2013-09-13 09:46:00,65.1,63.7,29.12,SSE,158,0.0,2.0,95,0.00,,---,0.16,VWS V14.01,2013-09-13 13:46:00,
2013-09-13 09:52:00,64.9,63.2,29.12,SSW,202,0.0,0.9,94,0.00,,---,0.16,VWS V14.01,2013-09-13 13:52:00,
2013-09-13 09:57:00,64.9,63.2,29.12,South,180,0.0,0.0,94,0.00,,---,0.16,VWS V14.01,2013-09-13 13:57:00,
2013-09-13 10:03:00,64.8,63.0,29.12,West,270,1.1,2.9,94,0.00,,---,0.16,VWS V14.01,2013-09-13 14:03:00,
2013-09-13 10:08:00,64.8,63.0,29.12,SSW,202,1.3,2.0,94,0.00,,---,0.16,VWS V14.01,2013-09-13 14:08:00,
2013-09-13 10:13:00,64.9,63.5,29.12,West,270,0.0,2.2,95,0.00,,---,0.16,VWS V14.01,2013-09-13 14:13:00,
2013-09-13 10:19:00,64.9,63.5,29.12,ENE,68,0.0,1.1,95,0.00,,---,0.16,VWS V14.01,2013-09-13 14:19:00,
2013-09-13 10:25:00,64.9,63.5,29.12,WSW,248,0.0,0.0,95,0.00,,---,0.16,VWS V14.01,2013-09-13 14:25:00,
2013-09-13 10:31:00,64.9,63.5,29.12,WSW,248,0.0,0.0,95,0.00,,---,0.16,VWS V14.01,2013-09-13 14:31:00,
2013-09-13 10:36:00,64.9,63.5,29.12,SW,225,0.0,0.0,95,0.00,,---,0.16,VWS V14.01,2013-09-13 14:36:00,
2013-09-13 10:41:00,64.8,63.0,29.12,NW,315,0.0,0.9,94,0.00,,---,0.16,VWS V14.01,2013-09-13 14:41:00,
2013-09-13 10:47:00,64.8,63.0,29.12,SW,225,2.0,2.0,94,0.00,,---,0.16,VWS V14.01,2013-09-13 14:47:00,
2013-09-13 10:53:00,64.8,62.7,29.12,WSW,248,1.3,2.9,93,0.00,,---,0.16,VWS V14.01,2013-09-13 14:53:00,
2013-09-13 10:58:00,64.6,62.5,29.12,SW,225,0.0,1.1,93,0.00,,---,0.16,VWS V14.01,2013-09-13 14:58:00,
2013-09-13 11:03:00,64.6,62.2,29.12,NW,315,0.0,2.7,92,0.00,,---,0.16,VWS V14.01,2013-09-13 15:03:00,
2013-09-13 11:08:00,64.4,62.0,29.12,NW,315,2.2,2.2,92,0.00,,---,0.16,VWS V14.01,2013-09-13 15:08:00,
2013-09-13 11:14:00,64.4,62.3,29.12,West,270,0.9,1.6,93,0.05,,---,0.21,VWS V14.01,2013-09-13 15:14:00,
2013-09-13 11:20:00,64.4,62.3,29.12,WSW,248,1.1,2.0,93,0.05,,---,0.21,VWS V14.01,2013-09-13 15:20:00,
2013-09-13 11:25:00,64.2,62.2,29.12,SSW,202,2.0,2.0,93,0.05,,---,0.21,VWS V14.01,2013-09-13 15:25:00,
2013-09-13 11:31:00,64.4,62.3,29.12,SW,225,1.6,2.5,93,0.05,,---,0.21,VWS V14.01,2013-09-13 15:31:00,
2013-09-13 14:59:00,63.5,57.6,29.09,NNE,22,2.9,2.9,81,0.00,,---,0.21,VWS V14.01,2013-09-13 18:59:00,
2013-09-13 15:09:00,63.3,57.7,29.09,SSW,202,2.7,2.9,82,0.00,,---,0.21,VWS V14.01,2013-09-13 19:09:00,
2013-09-13 15:15:00,63.3,57.7,29.09,South,180,1.3,2.0,82,0.00,,---,0.21,VWS V14.01,2013-09-13 19:15:00,
2013-09-13 15:21:00,63.1,57.2,29.12,NW,315,3.4,4.3,81,0.00,,---,0.21,VWS V14.01,2013-09-13 19:21:00,
2013-09-13 15:27:00,63.1,57.2,29.12,SSW,202,1.1,3.4,81,0.00,,---,0.21,VWS V14.01,2013-09-13 19:27:00,
2013-09-13 15:32:00,63.0,57.0,29.12,WSW,248,1.6,2.2,81,0.00,,---,0.21,VWS V14.01,2013-09-13 19:32:00,
2013-09-13 15:37:00,63.0,56.7,29.12,SW,225,3.4,4.9,80,0.00,,---,0.21,VWS V14.01,2013-09-13 19:37:00,
2013-09-13 15:42:00,63.0,57.0,29.12,SW,225,0.0,0.0,81,0.00,,---,0.21,VWS V14.01,2013-09-13 19:42:00,
2013-09-13 15:48:00,63.0,57.0,29.12,South,180,0.0,0.9,81,0.00,,---,0.21,VWS V14.01,2013-09-13 19:48:00,
2013-09-13 15:54:00,63.0,57.0,29.12,SW,225,0.0,0.0,81,0.00,,---,0.21,VWS V14.01,2013-09-13 19:54:00,
2013-09-13 15:59:00,63.0,57.4,29.12,SSW,202,1.3,2.5,82,0.00,,---,0.21,VWS V14.01,2013-09-13 19:59:00,
2013-09-13 16:05:00,63.1,57.6,29.12,SE,135,1.6,2.7,82,0.00,,---,0.21,VWS V14.01,2013-09-13 20:05:00,
2013-09-13 16:10:00,63.1,57.6,29.12,NE,45,0.0,0.0,82,0.00,,---,0.21,VWS V14.01,2013-09-13 20:10:00,
2013-09-13 16:15:00,63.1,57.6,29.12,SSW,202,2.5,2.5,82,0.00,,---,0.21,VWS V14.01,2013-09-13 20:15:00,
2013-09-13 16:21:00,62.8,57.5,29.14,SSW,202,1.1,3.6,83,0.00,,---,0.21,VWS V14.01,2013-09-13 20:21:00,
2013-09-13 16:26:00,62.6,57.4,29.14,SW,225,0.0,1.1,83,0.00,,---,0.21,VWS V14.01,2013-09-13 20:26:00,
2013-09-13 16:32:00,62.6,57.4,29.14,ESE,112,2.0,2.0,83,0.00,,---,0.21,VWS V14.01,2013-09-13 20:32:00,
2013-09-13 16:38:00,62.4,57.9,29.12,NNE,22,1.1,1.1,85,0.00,,---,0.21,VWS V14.01,2013-09-13 20:38:00,
2013-09-13 16:43:00,62.4,58.2,29.12,NNE,22,1.1,1.1,86,0.00,,---,0.21,VWS V14.01,2013-09-13 20:43:00,
2013-09-13 16:49:00,62.4,58.5,29.14,NNE,22,1.1,1.1,87,0.04,,---,0.25,VWS V14.01,2013-09-13 20:49:00,
2013-09-13 16:54:00,62.4,58.5,29.14,SSW,202,3.1,3.1,87,0.04,,---,0.25,VWS V14.01,2013-09-13 20:54:00,
2013-09-13 17:00:00,62.4,58.2,29.14,NNE,22,0.0,0.0,86,0.04,,---,0.25,VWS V14.01,2013-09-13 21:00:00,
2013-09-13 17:06:00,62.2,58.3,29.14,NNE,22,0.0,1.6,87,0.04,,---,0.25,VWS V14.01,2013-09-13 21:06:00,
2013-09-13 17:11:00,62.2,57.7,29.14,SSW,202,2.5,2.5,85,0.04,,---,0.25,VWS V14.01,2013-09-13 21:11:00,
2013-09-13 17:17:00,62.1,57.5,29.14,South,180,1.6,3.6,85,0.04,,---,0.25,VWS V14.01,2013-09-13 21:17:00,
2013-09-13 17:23:00,61.9,56.7,29.14,WSW,248,2.5,8.5,83,0.04,,---,0.25,VWS V14.01,2013-09-13 21:23:00,
2013-09-13 17:29:00,61.7,56.5,29.14,NNE,22,2.5,2.7,83,0.04,,---,0.25,VWS V14.01,2013-09-13 21:29:00,
2013-09-13 17:35:00,61.5,56.3,29.14,SW,225,4.3,4.3,83,0.04,,---,0.25,VWS V14.01,2013-09-13 21:35:00,
2013-09-13 17:40:00,61.5,56.3,29.14,SSW,202,3.1,4.0,83,0.04,,---,0.25,VWS V14.01,2013-09-13 21:40:00,
2013-09-13 17:46:00,61.3,56.1,29.14,SSW,202,1.6,1.6,83,0.00,,---,0.25,VWS V14.01,2013-09-13 21:46:00,
2013-09-13 17:51:00,61.3,55.8,29.14,NW,315,2.0,5.4,82,0.00,,---,0.25,VWS V14.01,2013-09-13 21:51:00,
2013-09-13 17:56:00,61.2,55.6,29.14,WSW,248,2.7,2.9,82,0.00,,---,0.25,VWS V14.01,2013-09-13 21:56:00,
2013-09-13 18:02:00,60.8,55.3,29.14,NE,45,2.5,2.5,82,0.00,,---,0.25,VWS V14.01,2013-09-13 22:02:00,
2013-09-13 18:07:00,60.6,55.4,29.14,SW,225,2.2,2.2,83,0.00,,---,0.25,VWS V14.01,2013-09-13 22:07:00,
2013-09-13 18:13:00,60.4,55.6,29.14,SSW,202,1.3,1.6,84,0.00,,---,0.25,VWS V14.01,2013-09-13 22:13:00,
2013-09-13 18:18:00,60.4,56.2,29.14,WSW,248,2.0,2.2,86,0.00,,---,0.25,VWS V14.01,2013-09-13 22:18:00,
2013-09-13 18:24:00,60.1,55.9,29.14,SW,225,0.0,0.0,86,0.00,,---,0.25,VWS V14.01,2013-09-13 22:24:00,
2013-09-13 18:29:00,59.9,56.0,29.14,SW,225,0.0,0.0,87,0.00,,---,0.25,VWS V14.01,2013-09-13 22:29:00,
2013-09-13 18:35:00,59.7,56.2,29.14,SW,225,0.0,0.0,88,0.00,,---,0.25,VWS V14.01,2013-09-13 22:35:00,
2013-09-13 18:40:00,59.7,56.2,29.14,West,270,2.9,2.9,88,0.00,,---,0.25,VWS V14.01,2013-09-13 22:40:00,
2013-09-13 18:45:00,59.5,56.0,29.14,SW,225,0.0,2.0,88,0.00,,---,0.25,VWS V14.01,2013-09-13 22:45:00,
2013-09-13 18:51:00,59.5,56.0,29.14,SW,225,1.1,1.1,88,0.00,,---,0.25,VWS V14.01,2013-09-13 22:51:00,
2013-09-13 18:57:00,59.5,56.0,29.14,NNE,22,0.0,0.0,88,0.00,,---,0.25,VWS V14.01,2013-09-13 22:57:00,
2013-09-13 19:03:00,59.5,56.0,29.14,WNW,292,0.0,1.3,88,0.00,,---,0.25,VWS V14.01,2013-09-13 23:03:00,
2013-09-13 19:08:00,59.4,55.8,29.14,East,90,0.0,2.2,88,0.00,,---,0.25,VWS V14.01,2013-09-13 23:08:00,
2013-09-13 19:13:00,59.5,55.7,29.14,WSW,248,2.7,2.7,87,0.00,,---,0.25,VWS V14.01,2013-09-13 23:13:00,
2013-09-13 19:18:00,59.7,55.2,29.14,NNW,338,2.9,6.3,85,0.00,,---,0.25,VWS V14.01,2013-09-13 23:18:00,
2013-09-13 19:23:00,59.7,54.9,29.14,SW,225,4.9,4.9,84,0.00,,---,0.25,VWS V14.01,2013-09-13 23:23:00,
2013-09-13 19:28:00,59.5,54.0,29.14,SSW,202,3.6,3.6,82,0.00,,---,0.25,VWS V14.01,2013-09-13 23:28:00,
2013-09-13 19:33:00,59.5,53.4,29.14,SSW,202,4.0,5.8,80,0.00,,---,0.25,VWS V14.01,2013-09-13 23:33:00,
2013-09-13 19:38:00,59.2,53.7,29.14,NW,315,2.7,2.7,82,0.00,,---,0.25,VWS V14.01,2013-09-13 23:38:00,
2013-09-13 19:44:00,59.4,53.2,29.14,NNE,22,2.2,2.2,80,0.00,,---,0.25,VWS V14.01,2013-09-13 23:44:00,
2013-09-13 19:50:00,59.4,53.5,29.17,NNE,22,1.6,2.7,81,0.00,,---,0.25,VWS V14.01,2013-09-13 23:50:00,
2013-09-13 19:56:00,59.0,53.5,29.17,West,270,3.1,3.1,82,0.00,,---,0.25,VWS V14.01,2013-09-13 23:56:00,
2013-09-13 20:02:00,58.8,53.7,29.17,North,0,1.6,1.6,83,0.00,,---,0.25,VWS V14.01,2013-09-14 00:02:00,
2013-09-13 20:07:00,58.8,53.7,29.17,NNE,22,2.2,2.2,83,0.00,,---,0.25,VWS V14.01,2013-09-14 00:07:00,
2013-09-13 20:13:00,58.8,53.0,29.17,NW,315,1.6,3.6,81,0.00,,---,0.25,VWS V14.01,2013-09-14 00:13:00,
2013-09-13 20:19:00,58.6,52.8,29.17,NNW,338,2.7,2.7,81,0.00,,---,0.25,VWS V14.01,2013-09-14 00:19:00,
2013-09-13 20:24:00,58.6,52.8,29.17,NNW,338,0.0,2.0,81,0.00,,---,0.25,VWS V14.01,2013-09-14 00:24:00,
2013-09-13 20:31:00,58.8,52.3,29.17,West,270,2.0,2.7,79,0.00,,---,0.25,VWS V14.01,2013-09-14 00:31:00,
2013-09-13 20:37:00,58.8,52.3,29.20,NW,315,2.7,3.6,79,0.00,,---,0.25,VWS V14.01,2013-09-14 00:37:00,
2013-09-13 20:43:00,58.8,52.3,29.20,NNE,22,2.9,4.0,79,0.00,,---,0.25,VWS V14.01,2013-09-14 00:43:00,
2013-09-13 20:48:00,58.8,52.7,29.20,ENE,68,1.3,2.9,80,0.00,,---,0.25,VWS V14.01,2013-09-14 00:48:00,
2013-09-13 20:54:00,58.8,52.3,29.20,NNE,22,2.5,4.7,79,0.00,,---,0.25,VWS V14.01,2013-09-14 00:54:00,
2013-09-13 20:59:00,59.0,52.2,29.20,ENE,68,2.5,2.9,78,0.00,,---,0.25,VWS V14.01,2013-09-14 00:59:00,
2013-09-13 21:04:00,59.2,52.0,29.20,WNW,292,0.9,3.4,77,0.00,,---,0.25,VWS V14.01,2013-09-14 01:04:00,
2013-09-13 21:09:00,59.4,52.2,29.20,NW,315,1.6,2.5,77,0.00,,---,0.25,VWS V14.01,2013-09-14 01:09:00,
2013-09-13 21:15:00,59.5,51.3,29.20,SSW,202,1.1,2.2,74,0.00,,---,0.25,VWS V14.01,2013-09-14 01:15:00,
2013-09-13 21:20:00,59.5,50.9,29.20,SW,225,1.3,5.4,73,0.00,,---,0.25,VWS V14.01,2013-09-14 01:20:00,
2013-09-13 21:26:00,59.7,51.1,29.20,West,270,4.0,4.0,73,0.00,,---,0.25,VWS V14.01,2013-09-14 01:26:00,
2013-09-13 21:31:00,59.7,50.7,29.20,SSE,158,3.6,3.6,72,0.00,,---,0.25,VWS V14.01,2013-09-14 01:31:00,
2013-09-13 21:37:00,59.7,51.1,29.20,West,270,0.0,2.0,73,0.00,,---,0.25,VWS V14.01,2013-09-14 01:37:00,
2013-09-13 21:42:00,59.5,50.9,29.20,East,90,2.0,2.2,73,0.00,,---,0.25,VWS V14.01,2013-09-14 01:42:00,
2013-09-13 21:47:00,59.5,50.9,29.20,ENE,68,1.3,2.0,73,0.00,,---,0.25,VWS V14.01,2013-09-14 01:47:00,
2013-09-13 21:53:00,59.4,50.7,29.20,NW,315,0.0,3.4,73,0.00,,---,0.25,VWS V14.01,2013-09-14 01:53:00,
2013-09-13 21:58:00,59.4,50.7,29.20,NNW,338,2.0,2.2,73,0.00,,---,0.25,VWS V14.01,2013-09-14 01:58:00,
2013-09-13 22:04:00,59.4,50.7,29.20,NNE,22,1.3,2.7,73,0.00,,---,0.25,VWS V14.01,2013-09-14 02:04:00,
2013-09-13 22:09:00,59.4,50.7,29.20,NNE,22,0.0,2.0,73,0.00,,---,0.25,VWS V14.01,2013-09-14 02:09:00,
2013-09-13 22:15:00,59.2,50.9,29.20,NNW,338,1.6,3.4,74,0.00,,---,0.25,VWS V14.01,2013-09-14 02:15:00,
2013-09-13 22:21:00,59.0,50.7,29.20,SW,225,1.3,2.7,74,0.00,,---,0.25,VWS V14.01,2013-09-14 02:21:00,
2013-09-13 22:26:00,58.6,50.4,29.20,WNW,292,1.3,3.1,74,0.00,,---,0.25,VWS V14.01,2013-09-14 02:26:00,
2013-09-13 22:32:00,58.5,50.6,29.20,SSW,202,2.5,2.5,75,0.00,,---,0.25,VWS V14.01,2013-09-14 02:32:00,
2013-09-13 22:37:00,58.1,50.6,29.23,SSW,202,0.0,0.0,76,0.00,,---,0.25,VWS V14.01,2013-09-14 02:37:00,
2013-09-13 22:43:00,57.9,50.4,29.23,WSW,248,2.5,2.5,76,0.00,,---,0.25,VWS V14.01,2013-09-14 02:43:00,
2013-09-13 22:49:00,58.1,50.6,29.23,SSW,202,2.5,2.5,76,0.00,,---,0.25,VWS V14.01,2013-09-14 02:49:00,
2013-09-13 22:54:00,57.9,50.4,29.23,West,270,1.3,2.5,76,0.00,,---,0.25,VWS V14.01,2013-09-14 02:54:00,
2013-09-13 23:00:00,57.6,50.8,29.23,SW,225,2.2,2.2,78,0.00,,---,0.25,VWS V14.01,2013-09-14 03:00:00,
2013-09-13 23:06:00,57.2,51.1,29.23,West,270,0.0,0.0,80,0.00,,---,0.25,VWS V14.01,2013-09-14 03:06:00,
2013-09-13 23:11:00,56.8,51.1,29.23,West,270,2.5,2.5,81,0.00,,---,0.25,VWS V14.01,2013-09-14 03:11:00,
2013-09-13 23:17:00,56.7,51.2,29.23,SSW,202,1.3,1.6,82,0.00,,---,0.25,VWS V14.01,2013-09-14 03:17:00,
2013-09-13 23:22:00,56.7,51.6,29.23,SW,225,0.0,1.3,83,0.00,,---,0.25,VWS V14.01,2013-09-14 03:22:00,
2013-09-13 23:28:00,56.7,51.6,29.23,SW,225,1.3,2.0,83,0.00,,---,0.25,VWS V14.01,2013-09-14 03:28:00,
2013-09-13 23:33:00,56.7,51.9,29.23,SW,225,1.6,2.2,84,0.00,,---,0.25,VWS V14.01,2013-09-14 03:33:00,
2013-09-13 23:39:00,56.5,52.0,29.23,SW,225,0.0,0.0,85,0.00,,---,0.25,VWS V14.01,2013-09-14 03:39:00,
2013-09-13 23:45:00,56.3,52.2,29.23,SW,225,0.0,0.0,86,0.00,,---,0.25,VWS V14.01,2013-09-14 03:45:00,
2013-09-13 23:50:00,56.3,52.5,29.23,SW,225,0.0,0.0,87,0.00,,---,0.25,VWS V14.01,2013-09-14 03:50:00,
2013-09-13 23:56:00,56.3,52.5,29.23,SW,225,0.0,0.0,87,0.00,,---,0.25,VWS V14.01,2013-09-14 03:56:00,